Time,TemperatureF,DewpointF,PressureIn,WindDirection,WindDirectionDegrees,WindSpeedMPH,WindSpeedGustMPH,Humidity,HourlyPrecipIn,Conditions,Clouds,dailyrainin,SoftwareType,DateUTC
2013-02-17 00:15:00,24.8,15.8,30.23,SW,225,2.2,3.8,68,0.00,,,0.00,pywws,2013-02-17 05:15:00,
2013-02-17 00:45:00,24.4,16.1,30.23,North,0,0.7,2.2,70,0.00,,,0.00,pywws,2013-02-17 05:45:00,
2013-02-17 01:15:00,24.4,16.1,30.22,North,-999,0.0,0.7,70,0.00,,,0.00,pywws,2013-02-17 06:15:00,
2013-02-17 01:45:00,24.4,16.7,30.22,North,-999,0.0,0.7,72,0.00,,,0.00,pywws,2013-02-17 06:45:00,
2013-02-17 02:15:00,24.6,17.2,30.22,North,-999,0.0,0.7,73,0.00,,,0.00,pywws,2013-02-17 07:15:00,
2013-02-17 02:45:00,23.9,17.8,30.22,North,-999,0.0,0.0,77,0.00,,,0.00,pywws,2013-02-17 07:45:00,
2013-02-17 03:15:00,23.4,17.8,30.22,East,90,0.7,1.6,79,0.00,,,0.00,pywws,2013-02-17 08:15:00,
2013-02-17 03:45:00,24.1,16.7,30.22,NW,315,0.7,3.8,73,0.00,,,0.00,pywws,2013-02-17 08:45:00,
2013-02-17 04:15:00,24.4,13.7,30.23,NE,45,2.2,4.5,63,0.00,,,0.00,pywws,2013-02-17 09:15:00,
2013-02-17 04:45:00,23.9,12.8,30.23,North,-999,0.0,2.2,62,0.00,,,0.00,pywws,2013-02-17 09:45:00,
2013-02-17 05:15:00,23.9,13.5,30.24,SW,225,3.1,7.6,64,0.00,,,0.00,pywws,2013-02-17 10:15:00,
2013-02-17 05:45:00,23.4,13.7,30.24,North,-999,0.0,0.7,66,0.00,,,0.00,pywws,2013-02-17 10:45:00,
2013-02-17 06:15:00,23.5,14.2,30.26,North,0,4.5,6.9,67,0.00,,,0.00,pywws,2013-02-17 11:15:00,
2013-02-17 06:45:00,22.1,16.3,30.27,West,270,2.2,5.4,78,0.00,,,0.00,pywws,2013-02-17 11:45:00,
2013-02-17 07:15:00,22.1,13.8,30.28,WNW,292,1.6,5.4,70,0.00,,,0.00,pywws,2013-02-17 12:15:00,
2013-02-17 07:45:00,21.6,13.6,30.29,NW,315,4.5,8.3,71,0.00,,,0.00,pywws,2013-02-17 12:45:00,
2013-02-17 08:15:00,21.4,12.5,30.31,West,270,1.6,4.5,68,0.00,,,0.00,pywws,2013-02-17 13:15:00,
2013-02-17 08:45:00,22.1,10.7,30.32,West,270,3.1,6.9,61,0.00,,,0.00,pywws,2013-02-17 13:45:00,
2013-02-17 09:15:00,22.8,10.7,30.32,North,0,3.8,7.6,59,0.00,,,0.00,pywws,2013-02-17 14:15:00,
2013-02-17 09:45:00,23.2,10.2,30.33,NE,45,3.1,7.6,57,0.00,,,0.00,pywws,2013-02-17 14:45:00,
2013-02-17 10:15:00,25.0,10.7,30.34,NE,45,1.6,3.8,54,0.00,,,0.00,pywws,2013-02-17 15:15:00,
2013-02-17 10:45:00,24.6,11.2,30.34,SW,225,4.5,8.3,56,0.00,,,0.00,pywws,2013-02-17 15:45:00,
2013-02-17 11:15:00,26.2,11.9,30.35,West,270,6.0,13.6,54,0.00,,,0.00,pywws,2013-02-17 16:15:00,
2013-02-17 11:45:00,26.2,10.2,30.35,WNW,292,4.5,7.6,50,0.00,,,0.00,pywws,2013-02-17 16:45:00,
2013-02-17 12:15:00,27.0,9.4,30.36,WSW,248,6.0,12.1,47,0.00,,,0.00,pywws,2013-02-17 17:15:00,
2013-02-17 12:45:00,26.4,11.6,30.35,West,270,6.0,15.9,53,0.00,,,0.00,pywws,2013-02-17 17:45:00,
2013-02-17 13:15:00,26.4,12.5,30.35,WSW,248,5.4,10.7,55,0.00,,,0.00,pywws,2013-02-17 18:15:00,
2013-02-17 13:45:00,27.3,9.3,30.35,NW,315,5.4,9.8,46,0.00,,,0.00,pywws,2013-02-17 18:45:00,
2013-02-17 14:15:00,28.8,9.6,30.36,SE,135,6.0,15.9,44,0.00,,,0.00,pywws,2013-02-17 19:15:00,
2013-02-17 14:45:00,27.7,10.6,30.36,NW,315,6.0,13.6,48,0.00,,,0.00,pywws,2013-02-17 19:45:00,
2013-02-17 15:15:00,27.5,7.5,30.37,West,270,3.1,7.6,42,0.00,,,0.00,pywws,2013-02-17 20:15:00,
2013-02-17 15:45:00,26.4,8.5,30.37,NE,45,1.6,3.8,46,0.00,,,0.00,pywws,2013-02-17 20:45:00,
2013-02-17 16:15:00,26.4,8.5,30.38,North,0,3.8,6.9,46,0.00,,,0.00,pywws,2013-02-17 21:15:00,
2013-02-17 16:45:00,24.1,13.0,30.40,South,180,3.8,6.0,62,0.00,,,0.00,pywws,2013-02-17 21:45:00,
2013-02-17 17:15:00,24.1,11.1,30.41,NW,315,1.6,3.1,57,0.00,,,0.00,pywws,2013-02-17 22:15:00,
2013-02-17 17:45:00,23.2,9.0,30.43,West,270,6.0,13.0,54,0.00,,,0.00,pywws,2013-02-17 22:45:00,
2013-02-17 18:15:00,22.5,9.9,30.44,SW,225,3.1,5.4,58,0.00,,,0.00,pywws,2013-02-17 23:15:00,
2013-02-17 18:45:00,21.9,12.3,30.46,West,270,5.4,8.3,66,0.00,,,0.00,pywws,2013-02-17 23:45:00,
2013-02-17 19:15:00,22.3,10.2,30.47,West,270,8.3,15.2,59,0.00,,,0.00,pywws,2013-02-18 00:15:00,
2013-02-17 19:45:00,22.5,9.6,30.47,SW,225,2.2,5.4,57,0.00,,,0.00,pywws,2013-02-18 00:45:00,
2013-02-17 20:15:00,22.5,9.9,30.48,NW,315,3.1,5.4,58,0.00,,,0.00,pywws,2013-02-18 01:15:00,
2013-02-17 20:45:00,21.6,13.0,30.50,North,0,3.1,6.0,69,0.00,,,0.00,pywws,2013-02-18 01:45:00,
2013-02-17 21:15:00,22.3,10.9,30.51,West,270,3.1,5.4,61,0.00,,,0.00,pywws,2013-02-18 02:15:00,
2013-02-17 21:45:00,22.5,8.4,30.52,SE,135,3.1,6.9,54,0.00,,,0.00,pywws,2013-02-18 02:45:00,
2013-02-17 22:15:00,22.1,7.2,30.53,South,180,2.2,5.4,52,0.00,,,0.00,pywws,2013-02-18 03:15:00,
2013-02-17 22:45:00,21.7,6.9,30.54,SE,135,4.5,9.2,52,0.00,,,0.00,pywws,2013-02-18 03:45:00,
2013-02-17 23:15:00,21.7,6.9,30.55,West,270,3.8,6.0,52,0.00,,,0.00,pywws,2013-02-18 04:15:00,
2013-02-17 23:45:00,21.6,5.8,30.55,NE,45,4.5,9.2,50,0.00,,,0.00,pywws,2013-02-18 04:45:00,